AWE1014 KBOS-KPWM

Flight info

Callsign AWE1014
Flight time 0h 24m
Altitude 15000
Route LBSTA8 LBSTA SCOGS SCOGS3
Aircraft A321/M-SDE3FGHIRWY/LB1

Departure

Time 2026-05-04 20:43
Airport Boston Logan International Airport (KBOS)

Arrival

Time 2026-05-04 21:07
Airport Portland International Jetport (KPWM)
Time Latitude Longitude Altitude Speed Heading
2026-05-04 20:29 0.00000 0.00000 0 ft 0 kts
2026-05-04 20:29 42.36870 -71.01499 19 ft 0 kts 228°
2026-05-04 20:35 42.36878 -71.01488 19 ft 2 kts 227°
2026-05-04 20:36 42.36888 -71.01472 19 ft 2 kts 228°
2026-05-04 20:36 42.36895 -71.01463 19 ft 1 kts 228°
2026-05-04 20:36 42.36907 -71.01450 19 ft 2 kts 192°
2026-05-04 20:36 42.36923 -71.01450 19 ft 2 kts 162°
2026-05-04 20:37 42.36933 -71.01458 19 ft 0 kts 137°
2026-05-04 20:37 42.36938 -71.01465 19 ft 1 kts 134°
2026-05-04 20:37 42.36939 -71.01466 19 ft 0 kts 134°
2026-05-04 20:38 42.36926 -71.01447 19 ft 9 kts 134°
2026-05-04 20:39 42.36860 -71.01359 19 ft 13 kts 133°
2026-05-04 20:39 42.36863 -71.01247 19 ft 14 kts 39°
2026-05-04 20:39 42.36942 -71.01157 19 ft 15 kts 40°
2026-05-04 20:39 42.37033 -71.01077 19 ft 16 kts 26°
2026-05-04 20:40 42.37137 -71.01010 18 ft 16 kts 25°
2026-05-04 20:40 42.37245 -71.00942 18 ft 17 kts 25°
2026-05-04 20:40 42.37358 -71.00875 18 ft 17 kts 21°
2026-05-04 20:40 42.37476 -71.00819 17 ft 17 kts 19°
2026-05-04 20:41 42.37595 -71.00761 17 ft 18 kts 20°
2026-05-04 20:41 42.37715 -71.00705 17 ft 18 kts 19°
2026-05-04 20:41 42.37827 -71.00636 17 ft 15 kts 52°
2026-05-04 20:41 42.37836 -71.00587 17 ft 0 kts 99°
2026-05-04 20:42 42.37823 -71.00528 17 ft 14 kts 118°
2026-05-04 20:42 42.37677 -71.00529 17 ft 39 kts 201°
2026-05-04 20:42 42.37188 -71.00764 18 ft 108 kts 199°
2026-05-04 20:42 42.36274 -71.01189 98 ft 157 kts 202°
2026-05-04 20:43 42.35251 -71.01607 766 ft 157 kts 201°
2026-05-04 20:43 42.34157 -71.01671 1494 ft 165 kts 168°
2026-05-04 20:43 42.33184 -71.00701 2053 ft 185 kts 140°
2026-05-04 20:43 42.32343 -70.99242 2456 ft 204 kts 133°
2026-05-04 20:44 42.31493 -70.97607 2852 ft 222 kts 128°
2026-05-04 20:44 42.31031 -70.95511 3173 ft 254 kts 91°
2026-05-04 20:44 42.31364 -70.93036 3587 ft 276 kts 77°
2026-05-04 20:44 42.31850 -70.90413 4098 ft 293 kts 77°
2026-05-04 20:45 42.32319 -70.87727 4668 ft 298 kts 77°
2026-05-04 20:45 42.32761 -70.84991 5029 ft 301 kts 78°
2026-05-04 20:45 42.33189 -70.82197 5665 ft 307 kts 77°
2026-05-04 20:45 42.33608 -70.79392 6569 ft 306 kts 77°
2026-05-04 20:46 42.34216 -70.76651 7408 ft 303 kts 57°
2026-05-04 20:46 42.35657 -70.74623 8220 ft 291 kts 23°
2026-05-04 20:46 42.37513 -70.73728 9061 ft 283 kts
2026-05-04 20:46 42.39419 -70.73043 9821 ft 286 kts
2026-05-04 20:47 42.41381 -70.72303 10513 ft 291 kts 10°
2026-05-04 20:47 42.43370 -70.71517 10879 ft 308 kts 11°
2026-05-04 20:47 42.45502 -70.70740 11371 ft 317 kts
2026-05-04 20:47 42.47647 -70.70082 12063 ft 319 kts
2026-05-04 20:48 42.49817 -70.69430 12734 ft 323 kts
2026-05-04 20:48 42.52020 -70.68770 13401 ft 326 kts
2026-05-04 20:48 42.54248 -70.68102 14046 ft 329 kts
2026-05-04 20:48 42.56513 -70.67421 14654 ft 333 kts
2026-05-04 20:49 42.58806 -70.66731 15007 ft 336 kts
2026-05-04 20:49 42.61103 -70.66039 15068 ft 335 kts
2026-05-04 20:49 42.63398 -70.65346 15079 ft 336 kts
2026-05-04 20:49 42.65708 -70.64649 15076 ft 336 kts
2026-05-04 20:50 42.68037 -70.63986 15121 ft 334 kts
2026-05-04 20:50 42.70317 -70.63460 15111 ft 333 kts
2026-05-04 20:50 42.72605 -70.62959 15048 ft 333 kts
2026-05-04 20:50 42.74910 -70.62457 15038 ft 333 kts
2026-05-04 20:51 42.77204 -70.61954 15047 ft 333 kts
2026-05-04 20:51 42.79480 -70.61211 15101 ft 339 kts 13°
2026-05-04 20:51 42.81645 -70.59936 15040 ft 344 kts 23°
2026-05-04 20:51 42.83720 -70.58247 14997 ft 345 kts 26°
2026-05-04 20:52 42.85738 -70.56501 15061 ft 345 kts 27°
2026-05-04 20:52 42.87805 -70.54696 15053 ft 345 kts 27°
2026-05-04 20:52 42.89831 -70.52932 15055 ft 345 kts 27°
2026-05-04 20:52 42.91888 -70.51149 15000 ft 345 kts 27°
2026-05-04 20:53 42.93931 -70.49384 15073 ft 345 kts 27°
2026-05-04 20:53 42.96012 -70.47584 15009 ft 342 kts 26°
2026-05-04 20:53 42.98033 -70.45837 14763 ft 343 kts 27°
2026-05-04 20:53 43.00032 -70.44112 14386 ft 341 kts 27°
2026-05-04 20:54 43.02032 -70.42384 14038 ft 340 kts 27°
2026-05-04 20:54 43.04062 -70.40633 13604 ft 340 kts 27°
2026-05-04 20:54 43.06101 -70.38866 13199 ft 340 kts 27°
2026-05-04 20:54 43.08125 -70.37112 12738 ft 340 kts 27°
2026-05-04 20:55 43.10137 -70.35365 12324 ft 339 kts 27°
2026-05-04 20:55 43.12171 -70.33601 11869 ft 339 kts 27°
2026-05-04 20:55 43.14192 -70.31845 11446 ft 338 kts 27°
2026-05-04 20:55 43.16202 -70.30098 11091 ft 334 kts 27°
2026-05-04 20:56 43.18151 -70.28389 11048 ft 326 kts 27°
2026-05-04 20:56 43.20082 -70.26691 10852 ft 321 kts 27°
2026-05-04 20:56 43.21987 -70.25016 10366 ft 323 kts 27°
2026-05-04 20:56 43.23897 -70.23337 9954 ft 322 kts 27°
2026-05-04 20:57 43.25794 -70.21673 9744 ft 313 kts 27°
2026-05-04 20:57 43.27608 -70.20101 9566 ft 304 kts 26°
2026-05-04 20:57 43.29420 -70.18539 9360 ft 297 kts 26°
2026-05-04 20:57 43.31216 -70.16997 9007 ft 296 kts 26°
2026-05-04 20:58 43.33013 -70.15515 8637 ft 295 kts 24°
2026-05-04 20:58 43.34811 -70.14095 8259 ft 294 kts 24°
2026-05-04 20:58 43.36591 -70.12695 7761 ft 290 kts 24°
2026-05-04 20:58 43.38359 -70.11307 7121 ft 290 kts 24°
2026-05-04 20:59 43.40121 -70.09921 6454 ft 289 kts 24°
2026-05-04 20:59 43.41917 -70.08502 5774 ft 288 kts 25°
2026-05-04 20:59 43.43681 -70.07106 5165 ft 286 kts 25°
2026-05-04 20:59 43.45437 -70.05715 4524 ft 284 kts 25°
2026-05-04 21:00 43.47175 -70.04337 3897 ft 282 kts 25°
2026-05-04 21:00 43.48845 -70.03013 3333 ft 278 kts 25°
2026-05-04 21:00 43.50532 -70.01672 3044 ft 278 kts 25°
2026-05-04 21:00 43.52210 -70.00342 3015 ft 279 kts 25°
2026-05-04 21:01 43.53887 -69.99010 3004 ft 271 kts 25°
2026-05-04 21:01 43.55489 -69.97747 3004 ft 256 kts 21°
2026-05-04 21:01 43.57141 -69.97168 2992 ft 231 kts 351°
2026-05-04 21:01 43.58653 -69.97701 2999 ft 218 kts 324°
2026-05-04 21:02 43.59800 -69.99020 2997 ft 209 kts 302°
2026-05-04 21:02 43.60613 -70.00685 2996 ft 207 kts 298°
2026-05-04 21:02 43.61416 -70.02404 2996 ft 207 kts 298°
2026-05-04 21:02 43.62200 -70.04069 3004 ft 206 kts 297°
2026-05-04 21:03 43.62802 -70.05877 3001 ft 204 kts 283°
2026-05-04 21:03 43.63116 -70.07787 3011 ft 203 kts 279°
2026-05-04 21:03 43.63384 -70.09700 3014 ft 203 kts 278°
2026-05-04 21:03 43.63656 -70.11643 2933 ft 203 kts 278°
2026-05-04 21:04 43.63928 -70.13560 2737 ft 202 kts 278°
2026-05-04 21:04 43.64198 -70.15458 2377 ft 195 kts 278°
2026-05-04 21:04 43.64458 -70.17269 2083 ft 188 kts 278°
2026-05-04 21:04 43.64786 -70.19076 1831 ft 188 kts 290°
2026-05-04 21:05 43.65385 -70.20609 1644 ft 175 kts 291°
2026-05-04 21:05 43.65649 -70.22142 1389 ft 158 kts 269°
2026-05-04 21:05 43.65385 -70.23550 1131 ft 147 kts 244°
2026-05-04 21:05 43.64789 -70.24667 894 ft 138 kts 236°
2026-05-04 21:06 43.64347 -70.25799 705 ft 130 kts 253°
2026-05-04 21:06 43.64257 -70.27030 548 ft 127 kts 271°
2026-05-04 21:06 43.64319 -70.28250 367 ft 127 kts 273°
2026-05-04 21:06 43.64381 -70.29467 109 ft 125 kts 271°
2026-05-04 21:07 43.64442 -70.30600 53 ft 105 kts 275°
2026-05-04 21:07 43.64494 -70.31377 67 ft 56 kts 276°
2026-05-04 21:07 43.64523 -70.31739 70 ft 33 kts 276°
2026-05-04 21:07 43.64547 -70.32014 70 ft 24 kts 286°
2026-05-04 21:08 43.64639 -70.32093 70 ft 8 kts 343°
2026-05-04 21:08 43.64667 -70.32170 70 ft 10 kts 278°
2026-05-04 21:08 43.64674 -70.32274 69 ft 11 kts 274°
2026-05-04 21:08 43.64682 -70.32385 69 ft 12 kts 276°
2026-05-04 21:09 43.64673 -70.32482 68 ft 0 kts 226°
2026-05-04 21:11 43.64614 -70.32502 68 ft 12 kts 180°
2026-05-04 21:11 43.64571 -70.32421 68 ft 13 kts 82°
2026-05-04 21:12 43.64567 -70.32283 69 ft 20 kts 95°
2026-05-04 21:12 43.64553 -70.32056 70 ft 23 kts 96°
2026-05-04 21:12 43.64537 -70.31834 70 ft 23 kts 95°
2026-05-04 21:12 43.64524 -70.31615 70 ft 23 kts 95°
2026-05-04 21:13 43.64511 -70.31414 68 ft 15 kts 96°
2026-05-04 21:13 43.64560 -70.31336 67 ft 11 kts
2026-05-04 21:13 43.64625 -70.31271 66 ft 13 kts 51°